This is the latest recevied weather packets stored in our database for station/object K5KVN. If no packets are shown the sender has not sent any weather packets the latest 10 day(s).
| Time | Temp. | Humidity | Pressure | Rain* | Wind** | Luminosity | Snow |
|---|---|---|---|---|---|---|---|
| 1787517213 | 35° C | 42% | 1017.5 hPa | 0 mm | - | - | - |
| 1787516614 | 34.44° C | 44% | 1017.7 hPa | 0 mm | - | - | - |
| 1787516071 | 34.44° C | 45% | 1017.8 hPa | 0 mm | - | - | - |
| 1787515410 | 35° C | 43% | 1017.9 hPa | 0 mm | - | - | - |
| 1787514870 | 34.44° C | 44% | 1017.9 hPa | 0 mm | - | - | - |
| 1787514210 | 34.44° C | 45% | 1018 hPa | 0 mm | - | - | - |
| 1787513612 | 33.89° C | 46% | 1017.9 hPa | 0 mm | - | - | - |
| 1787513066 | 33.89° C | 47% | 1018.1 hPa | 0 mm | - | - | - |
| 1787512467 | 33.33° C | 48% | 1018.2 hPa | 0 mm | - | - | - |
| 1787511807 | 33.33° C | 48% | 1018.3 hPa | 0 mm | - | - | - |
| 1787511206 | 33.33° C | 47% | 1018.5 hPa | 0 mm | - | - | - |
| 1787510603 | 33.33° C | 47% | 1018.6 hPa | 0 mm | - | - | - |
| 1787510063 | 33.33° C | 50% | 1018.8 hPa | 0 mm | - | - | - |
| 1787509402 | 32.78° C | 51% | 1019.1 hPa | 0 mm | - | - | - |
| 1787508802 | 32.78° C | 50% | 1019.2 hPa | 0 mm | - | - | - |
| 1787508203 | 32.22° C | 52% | 1019.3 hPa | 0 mm | - | - | - |
| 1787507601 | 31.67° C | 53% | 1019.4 hPa | 0 mm | - | - | - |
| 1787507000 | 31.67° C | 54% | 1019.5 hPa | 0 mm | - | - | - |
| 1787506401 | 31.67° C | 54% | 1019.6 hPa | 0 mm | - | - | - |
| 1787505800 | 31.11° C | 55% | 1020 hPa | 0 mm | - | - | - |
| 1787505201 | 31.11° C | 58% | 1020.2 hPa | 0 mm | - | - | - |
| 1787504600 | 31.11° C | 59% | 1020.3 hPa | 0 mm | - | - | - |
| 1787504000 | 31.11° C | 60% | 1020.5 hPa | 0 mm | - | - | - |
| 1787503400 | 30.56° C | 60% | 1020.6 hPa | 0 mm | - | - | - |
| 1787502800 | 30.56° C | 60% | 1020.6 hPa | 0 mm | - | - | - |
* Rain latest hour (hover to see other rain measurements)
** Current wind speed in m/s (hover to see current wind gust speed)